Date Time,Air Temp,Sky Temp,Clarity,Light Level,Rain Sensor,Readings
2009-10-08 00:00:05,16.8,4.1,12.7,0.2,2.3,112
2009-10-08 00:05:05,16.7,4.1,12.6,0.1,2.3,112
2009-10-08 00:10:05,16.7,4.2,12.5,0.1,2.2,112
2009-10-08 00:15:05,16.7,4.2,12.5,0.1,2.2,112
2009-10-08 00:20:05,16.6,4.0,12.6,0.1,2.3,111
2009-10-08 00:25:05,16.6,4.0,12.6,0.1,2.2,112
2009-10-08 00:30:05,16.6,3.8,12.7,0.1,2.3,112
2009-10-08 00:35:05,16.6,3.8,12.8,0.1,2.3,111
2009-10-08 00:40:05,16.5,3.6,12.9,0.1,2.3,112
2009-10-08 00:45:05,16.5,3.7,12.9,0.1,2.3,111
2009-10-08 00:50:05,16.6,3.6,13.0,0.1,2.3,111
2009-10-08 00:55:05,16.6,3.7,12.8,0.1,2.3,112
2009-10-08 01:00:05,16.6,3.7,12.8,0.2,2.3,111
2009-10-08 01:05:05,16.6,3.9,12.7,0.2,2.3,112
2009-10-08 01:10:05,16.6,3.8,12.8,0.2,2.3,111
2009-10-08 01:15:05,16.6,3.8,12.9,0.2,2.3,111
2009-10-08 01:20:05,16.7,3.6,13.1,0.2,2.3,111
2009-10-08 01:25:05,16.7,3.7,13.0,0.2,2.3,112
2009-10-08 01:30:05,16.7,3.7,13.0,0.2,2.3,111
2009-10-08 01:35:05,16.7,3.8,13.0,0.2,2.3,112
2009-10-08 01:40:05,16.4,3.6,12.9,0.2,2.3,111
2009-10-08 01:45:05,16.7,3.7,13.1,0.2,2.5,111
2009-10-08 01:50:05,16.7,3.3,13.4,0.2,2.4,111
2009-10-08 01:55:05,16.7,3.3,13.4,0.2,2.3,112
2009-10-08 02:00:05,16.7,3.2,13.4,0.2,2.3,111
2009-10-08 02:05:05,16.7,3.1,13.6,0.2,2.3,111
2009-10-08 02:10:05,16.7,3.1,13.6,0.2,2.3,111
2009-10-08 02:15:05,16.7,3.3,13.4,0.2,2.3,111
2009-10-08 02:20:05,16.7,3.6,13.1,0.2,2.3,112
2009-10-08 02:25:05,16.7,3.6,13.1,0.2,2.3,111
2009-10-08 02:30:05,16.7,3.5,13.2,0.2,2.3,111
2009-10-08 02:35:05,16.7,3.5,13.2,0.2,2.3,111
2009-10-08 02:40:05,16.7,3.8,12.9,0.2,2.3,112
2009-10-08 02:45:05,16.7,3.9,12.8,0.2,2.3,112
2009-10-08 02:50:05,16.7,3.8,12.9,0.2,2.3,111
2009-10-08 02:55:05,16.7,3.8,12.9,0.2,2.3,111
2009-10-08 03:00:05,16.8,3.7,13.0,0.2,2.3,112
2009-10-08 03:05:05,16.8,3.4,13.4,0.2,2.3,111
2009-10-08 03:10:05,16.7,2.9,13.8,0.3,2.3,111
2009-10-08 03:15:05,16.7,2.8,13.9,0.3,2.3,112
2009-10-08 03:20:05,16.7,2.7,14.0,0.3,2.3,111
2009-10-08 03:25:05,16.7,2.3,14.4,0.3,2.3,111
2009-10-08 03:30:05,16.7,2.3,14.4,0.3,2.3,112
2009-10-08 03:35:05,16.7,1.8,14.9,0.3,2.3,110
2009-10-08 03:40:05,16.8,1.8,15.0,0.3,2.3,111
2009-10-08 03:45:05,16.8,0.6,16.3,0.4,2.3,111
2009-10-08 03:50:05,16.8,0.7,16.2,0.5,2.3,111
2009-10-08 03:55:05,16.8,1.6,15.2,0.4,2.3,111
2009-10-08 04:00:05,16.8,1.2,15.6,0.4,2.3,111
2009-10-08 04:05:05,16.8,0.1,16.8,0.5,2.3,112
2009-10-08 04:10:05,16.8,0.3,16.5,0.5,2.3,111
2009-10-08 04:15:05,16.8,0.6,16.2,0.4,2.3,112
2009-10-08 04:20:05,16.8,0.3,16.4,0.5,2.3,111
2009-10-08 04:25:05,16.7,-0.1,16.9,0.4,2.3,111
2009-10-08 04:30:05,16.8,-1.4,18.1,0.4,2.3,112
2009-10-08 04:35:05,17.8,-3.9,21.8,0.6,2.3,112
2009-10-08 04:40:05,20.5,-7.7,28.2,0.5,2.2,112
2009-10-08 04:45:05,21.2,-11.4,32.6,0.6,2.2,112
2009-10-08 04:50:05,21.3,-13.1,34.4,0.6,2.3,111
2009-10-08 04:55:05,21.4,-13.7,35.1,0.5,2.3,112
2009-10-08 05:00:05,21.4,-13.8,35.2,0.5,2.3,111
2009-10-08 05:05:05,21.4,-14.3,35.8,0.5,2.3,112
2009-10-08 05:10:05,21.3,-14.7,36.1,0.5,2.3,111
2009-10-08 05:15:05,21.3,-14.8,36.1,0.5,2.3,112
2009-10-08 05:20:05,20.9,-15.2,36.1,0.5,2.3,112
2009-10-08 05:25:05,21.2,-15.0,36.3,0.5,2.3,112
2009-10-08 05:30:05,21.2,-14.3,35.4,0.5,2.3,111
2009-10-08 05:35:05,21.1,-10.7,31.9,0.6,2.3,112
2009-10-08 05:40:05,21.1,-5.8,26.9,0.4,2.3,111
2009-10-08 05:45:05,21.2,-3.8,25.0,0.3,2.3,112
2009-10-08 05:50:05,21.3,-4.6,25.9,0.4,2.3,112
2009-10-08 05:55:05,21.4,-6.3,27.7,0.6,2.3,112
2009-10-08 06:00:05,21.3,-9.0,30.3,0.6,2.3,111
2009-10-08 06:05:05,21.3,-13.6,34.8,0.6,2.3,112
2009-10-08 06:10:05,21.2,-15.7,37.0,0.6,2.3,111
2009-10-08 06:15:05,21.2,-15.7,36.9,0.6,2.3,111
2009-10-08 06:20:05,21.2,-13.7,34.9,0.6,2.3,112
2009-10-08 06:25:05,21.3,-10.5,31.7,0.7,2.3,111
2009-10-08 06:30:05,20.8,-7.2,28.1,0.9,2.3,112
2009-10-08 06:35:05,21.2,-7.4,28.6,1.5,2.3,111
2009-10-08 06:40:05,21.2,-11.8,33.0,2.7,2.3,112
2009-10-08 06:45:05,21.2,-14.7,35.9,5.1,2.3,111
2009-10-08 06:50:05,21.1,-16.6,37.6,9.3,2.3,111
2009-10-08 06:55:05,20.9,-16.5,37.4,15.1,2.2,112
2009-10-08 07:00:05,20.8,-16.9,37.6,20.9,2.1,111
2009-10-08 07:05:05,20.7,-15.3,36.0,25.5,2.0,112
2009-10-08 07:10:05,20.9,-15.0,36.0,28.3,2.0,112
2009-10-08 07:15:05,20.6,-14.0,34.6,29.9,2.1,111
2009-10-08 07:20:05,20.5,-14.5,35.0,30.8,2.0,112
2009-10-08 07:25:05,20.6,-13.7,34.3,31.3,2.0,112
2009-10-08 07:30:05,20.7,-14.8,35.5,31.6,2.0,111
2009-10-08 07:35:05,20.6,-16.4,37.0,31.8,2.0,111
2009-10-08 07:40:05,20.6,-16.9,37.5,32.0,2.2,112
2009-10-08 07:45:05,20.5,-16.8,37.3,32.1,2.2,112
2009-10-08 07:50:05,20.5,-17.8,38.3,32.1,2.3,111
2009-10-08 07:55:05,20.4,-17.8,38.2,32.2,2.3,112
2009-10-08 08:00:05,20.4,-17.5,37.9,32.3,2.3,111
2009-10-08 08:05:05,20.5,-17.5,37.9,32.3,2.3,112
2009-10-08 08:10:05,20.6,-17.1,37.6,32.4,2.1,112
2009-10-08 08:15:05,20.6,-16.5,37.1,32.4,2.0,111
2009-10-08 08:20:05,20.7,-16.8,37.5,32.4,2.1,112
2009-10-08 08:25:05,20.8,-17.7,38.5,32.4,2.2,111
2009-10-08 08:30:05,20.8,-18.1,39.0,32.4,2.2,112
2009-10-08 08:35:05,20.9,-18.4,39.3,32.4,2.3,112
2009-10-08 08:40:05,21.0,-18.5,39.5,32.4,2.3,112
2009-10-08 08:45:05,21.0,-18.7,39.8,32.4,2.3,111
2009-10-08 08:50:05,21.1,-18.8,39.9,32.4,2.3,112
2009-10-08 08:55:05,21.1,-18.8,39.9,32.4,2.3,112
2009-10-08 09:00:05,21.1,-18.7,39.9,32.4,2.3,112
2009-10-08 09:05:05,21.3,-19.0,40.3,32.4,2.3,111
2009-10-08 09:10:05,21.4,-19.0,40.4,32.4,2.3,112
2009-10-08 09:15:05,21.5,-18.8,40.3,32.4,2.3,112
2009-10-08 09:20:05,21.6,-19.0,40.7,32.4,2.3,112
2009-10-08 09:25:05,21.7,-19.3,40.9,32.4,2.3,111
2009-10-08 09:30:05,21.7,-19.3,41.0,32.4,2.3,112
2009-10-08 09:35:05,21.7,-19.5,41.3,32.4,2.3,111
2009-10-08 09:40:05,21.8,-19.4,41.3,32.4,2.3,112
2009-10-08 09:45:05,21.9,-19.6,41.5,32.4,2.3,112
2009-10-08 09:50:05,21.9,-19.6,41.5,32.4,2.3,111
2009-10-08 09:55:05,21.9,-19.6,41.5,32.4,2.3,112
2009-10-08 10:00:05,22.0,-19.4,41.5,32.4,2.3,112
2009-10-08 10:05:05,22.2,-20.0,42.1,32.4,2.3,111
2009-10-08 10:10:05,22.3,-19.9,42.2,32.4,2.3,112
2009-10-08 10:15:05,22.4,-20.1,42.5,32.4,2.3,112
2009-10-08 10:20:05,22.4,-20.5,42.9,32.4,2.1,111
2009-10-08 10:25:05,22.4,-20.6,43.0,32.4,2.0,112
2009-10-08 10:30:05,22.4,-19.8,42.3,32.5,2.1,112
2009-10-08 10:35:05,23.0,-19.7,42.7,32.5,2.3,111
2009-10-08 10:40:05,23.9,-20.0,43.9,32.6,2.3,112
2009-10-08 10:45:05,24.4,-20.6,44.9,32.6,2.3,112
2009-10-08 10:50:05,24.9,-20.4,45.4,32.6,2.3,111
2009-10-08 10:55:05,24.9,-20.1,45.0,32.6,2.3,112
2009-10-08 11:00:05,25.2,-20.4,45.6,32.6,2.3,112
2009-10-08 11:05:05,25.6,-20.5,46.1,32.6,2.3,111
2009-10-08 11:10:05,25.7,-20.4,46.1,32.6,2.3,112
2009-10-08 11:15:05,25.9,-19.9,45.8,32.6,2.3,111
2009-10-08 11:20:05,25.9,-20.6,46.6,32.6,2.3,112
2009-10-08 11:25:05,25.8,-20.0,45.8,32.6,2.3,112
2009-10-08 11:30:05,25.8,-19.4,45.3,32.6,2.3,112
2009-10-08 11:35:05,26.1,-18.7,44.8,32.6,2.3,111
2009-10-08 11:40:05,26.5,-18.8,45.3,32.6,2.3,112
2009-10-08 11:45:05,26.5,-19.1,45.6,32.6,2.3,112
2009-10-08 11:50:05,26.5,-18.6,45.1,32.6,2.3,111
2009-10-08 11:55:05,26.6,-18.6,45.2,32.6,2.3,112
2009-10-08 12:00:05,26.7,-18.3,45.0,32.6,2.3,111
2009-10-08 12:05:05,27.0,-17.8,44.8,32.6,2.3,112
2009-10-08 12:10:05,27.2,-17.9,45.2,32.6,2.3,111
2009-10-08 12:15:05,27.4,-17.3,44.6,32.6,2.3,112
2009-10-08 12:20:05,27.5,-16.9,44.4,32.6,2.3,111
2009-10-08 12:25:05,27.7,-17.3,45.0,32.6,2.3,112
2009-10-08 12:30:05,27.8,-17.5,45.3,32.6,2.3,111
2009-10-08 12:35:05,27.7,-16.5,44.3,32.6,2.3,112
2009-10-08 12:40:05,28.1,-16.7,44.9,32.6,2.3,111
2009-10-08 12:45:05,28.2,-17.0,45.2,32.6,2.2,112
2009-10-08 12:50:05,28.2,-16.7,44.9,32.6,2.1,111
2009-10-08 12:55:05,28.1,-17.1,45.3,32.6,1.8,112
2009-10-08 13:00:05,28.0,-16.9,44.9,32.6,2.2,111
2009-10-08 13:05:05,27.9,-16.9,44.8,32.6,2.3,111
2009-10-08 13:10:05,28.2,-16.4,44.6,32.6,2.0,112
2009-10-08 13:15:05,28.4,-16.7,45.1,32.6,1.5,112
2009-10-08 13:20:05,28.4,-16.8,45.3,32.6,1.3,111
2009-10-08 13:25:05,28.5,-16.4,44.9,32.6,1.6,111
2009-10-08 13:30:05,28.7,-16.4,45.1,32.6,1.1,112
2009-10-08 13:35:05,28.3,-16.7,44.9,32.6,1.2,112
2009-10-08 13:40:05,28.2,-16.5,44.8,32.6,1.1,111
2009-10-08 13:45:05,29.1,-15.7,44.9,32.6,1.1,111
2009-10-08 13:50:05,29.1,-16.5,45.6,32.6,1.0,111
2009-10-08 13:55:05,29.1,-16.1,45.3,32.6,1.1,112
2009-10-08 14:00:05,29.2,-16.4,45.6,32.6,1.1,111
2009-10-08 14:05:05,29.0,-16.4,45.4,32.6,1.1,111
2009-10-08 14:10:05,28.9,-16.5,45.4,32.6,1.1,111
2009-10-08 14:15:05,28.9,-15.5,44.4,32.6,1.0,112
2009-10-08 14:20:05,29.3,-14.8,44.2,32.6,1.2,111
2009-10-08 14:25:05,29.5,-15.7,45.1,32.6,1.3,112
2009-10-08 14:30:05,29.3,-15.8,45.2,32.6,1.3,112
2009-10-08 14:35:05,29.2,-15.5,44.7,32.6,1.2,111
2009-10-08 14:40:05,29.2,-15.5,44.7,32.6,1.2,112
2009-10-08 14:45:05,29.2,-14.9,44.0,32.6,1.2,111
2009-10-08 14:50:05,29.3,-15.2,44.6,32.6,1.3,111
2009-10-08 14:55:05,29.4,-15.5,44.8,32.6,1.4,112
2009-10-08 15:00:05,28.9,-14.8,43.7,32.6,1.4,111
2009-10-08 15:05:05,29.4,-14.4,43.8,32.6,1.4,112
2009-10-08 15:10:05,29.1,-14.9,44.0,32.6,1.5,111
2009-10-08 15:15:05,29.6,-15.3,44.9,32.6,1.5,112
2009-10-08 15:20:05,29.5,-14.6,44.1,32.6,1.5,111
2009-10-08 15:25:05,29.6,-14.7,44.3,32.6,1.5,111
2009-10-08 15:30:05,29.7,-15.1,44.8,32.6,1.6,112
2009-10-08 15:35:05,29.6,-15.3,44.9,32.6,1.5,112
2009-10-08 15:40:05,29.5,-15.3,44.9,32.6,1.5,111
2009-10-08 15:45:05,29.6,-15.4,44.9,32.6,1.5,111
2009-10-08 15:50:05,29.4,-15.5,44.9,32.6,1.5,112
2009-10-08 15:55:05,29.2,-15.3,44.6,32.6,1.4,111
2009-10-08 16:00:05,29.1,-15.3,44.5,32.6,1.4,111
2009-10-08 16:05:05,29.1,-15.1,44.2,32.6,1.3,112
2009-10-08 16:10:05,28.6,-14.9,43.5,32.6,1.3,112
2009-10-08 16:15:05,29.2,-15.4,44.6,32.6,1.4,111
2009-10-08 16:20:05,28.5,-15.2,43.7,32.6,1.4,111
2009-10-08 16:25:05,28.9,-15.4,44.3,32.6,1.3,112
2009-10-08 16:30:05,28.7,-15.5,44.2,32.6,1.2,111
2009-10-08 16:35:05,28.5,-15.2,43.7,32.6,1.1,111
2009-10-08 16:40:05,28.4,-15.2,43.7,32.6,1.1,112
2009-10-08 16:45:05,28.4,-15.0,43.4,32.6,1.0,111
2009-10-08 16:50:05,28.4,-15.7,44.1,32.6,1.0,112
2009-10-08 16:55:05,28.3,-15.3,43.6,32.6,1.0,111
2009-10-08 17:00:05,28.3,-15.3,43.6,32.6,1.0,112
2009-10-08 17:05:05,28.2,-15.6,43.8,32.6,1.0,112
2009-10-08 17:10:05,28.0,-15.5,43.6,32.6,1.1,111
2009-10-08 17:15:05,27.4,-16.0,43.4,32.6,1.2,112
2009-10-08 17:20:05,27.6,-16.4,44.0,32.6,1.4,111
2009-10-08 17:25:05,27.3,-16.6,43.9,32.6,1.6,112
2009-10-08 17:30:05,27.1,-16.8,43.9,32.6,2.2,111
2009-10-08 17:35:05,27.0,-16.4,43.4,32.6,2.3,111
2009-10-08 17:40:05,26.9,-16.7,43.5,32.6,2.3,112
2009-10-08 17:45:05,26.7,-16.9,43.6,32.5,2.3,111
2009-10-08 17:50:05,26.5,-17.0,43.4,32.5,2.3,112
2009-10-08 17:55:05,26.2,-17.2,43.4,32.5,2.3,111
2009-10-08 18:00:05,25.9,-17.8,43.7,32.5,2.3,111
2009-10-08 18:05:05,25.4,-18.0,43.5,32.4,2.3,112
2009-10-08 18:10:05,25.1,-17.9,43.0,32.4,2.3,111
2009-10-08 18:15:05,24.8,-18.2,43.0,32.2,2.3,112
2009-10-08 18:20:05,24.5,-18.4,42.9,32.0,2.3,112
2009-10-08 18:25:05,24.2,-18.4,42.6,31.8,2.3,112
2009-10-08 18:30:05,24.0,-18.4,42.3,31.4,2.3,111
2009-10-08 18:35:05,23.7,-18.4,42.0,30.9,2.3,112
2009-10-08 18:40:05,23.4,-18.4,41.8,29.8,2.3,112
2009-10-08 18:45:05,23.3,-18.4,41.7,27.8,2.3,111
2009-10-08 18:50:05,23.2,-18.4,41.6,24.0,2.2,112
2009-10-08 18:55:05,23.1,-18.5,41.6,18.0,2.3,112
2009-10-08 19:00:05,23.0,-18.6,41.6,11.8,2.3,112
2009-10-08 19:05:05,22.9,-18.5,41.5,6.9,2.3,112
2009-10-08 19:10:05,22.9,-18.5,41.4,3.7,2.3,112
2009-10-08 19:15:05,22.7,-18.5,41.2,1.9,2.3,111
2009-10-08 19:20:05,22.6,-18.5,41.0,0.9,2.3,112
2009-10-08 19:25:05,22.2,-18.3,40.4,0.5,2.3,111
2009-10-08 19:30:05,21.9,-18.4,40.2,0.2,2.3,112
2009-10-08 19:35:05,21.7,-18.4,40.2,0.1,2.3,112
2009-10-08 19:40:05,21.8,-18.5,40.3,0.0,2.3,112
2009-10-08 19:45:05,21.9,-18.6,40.5,0.0,2.4,112
2009-10-08 19:50:05,22.1,-18.7,40.8,0.0,2.3,111
2009-10-08 19:55:05,22.1,-18.8,40.8,0.0,2.3,112
2009-10-08 20:00:05,22.0,-18.8,40.8,0.0,2.3,112
2009-10-08 20:05:05,21.9,-18.7,40.7,0.0,2.3,111
2009-10-08 20:10:05,21.9,-18.6,40.5,0.0,2.4,112
2009-10-08 20:15:05,22.1,-18.6,40.7,0.0,2.4,112
2009-10-08 20:20:05,21.8,-18.8,40.6,0.0,2.4,112
2009-10-08 20:25:05,21.9,-18.9,40.8,0.0,2.3,111
2009-10-08 20:30:05,21.9,-18.9,40.8,0.0,2.3,112
2009-10-08 20:35:05,21.8,-18.8,40.6,0.0,2.3,111
2009-10-08 20:40:05,21.8,-18.8,40.6,0.0,2.3,112
2009-10-08 20:45:05,21.8,-18.7,40.5,0.0,2.3,112
2009-10-08 20:50:05,21.8,-18.7,40.6,0.0,2.3,112
2009-10-08 20:55:05,21.8,-18.6,40.5,0.0,2.2,112
2009-10-08 21:00:05,21.8,-18.7,40.5,0.0,2.2,111
2009-10-08 21:05:05,21.7,-18.8,40.5,0.0,2.0,112
2009-10-08 21:10:05,21.6,-18.8,40.5,0.0,2.1,112
2009-10-08 21:15:05,21.2,-18.7,39.9,0.0,2.3,112
2009-10-08 21:20:05,21.3,-18.7,40.0,0.0,2.3,112
2009-10-08 21:25:05,21.3,-18.9,40.1,0.0,2.3,111
2009-10-08 21:30:05,21.3,-18.8,40.1,0.0,2.3,112
2009-10-08 21:35:05,21.2,-19.1,40.2,0.0,2.3,112
2009-10-08 21:40:05,21.1,-19.0,40.2,0.0,2.3,111
2009-10-08 21:45:05,21.0,-19.1,40.1,0.0,2.3,112
2009-10-08 21:50:05,21.0,-19.1,40.1,0.0,2.3,111
2009-10-08 21:55:05,20.6,-19.1,39.7,0.0,2.3,112
2009-10-08 22:00:05,20.9,-19.0,40.0,0.0,2.3,112
2009-10-08 22:05:05,20.9,-19.2,40.0,0.0,2.3,112
2009-10-08 22:10:05,20.9,-19.0,39.9,0.0,2.3,112
2009-10-08 22:15:05,21.0,-19.2,40.2,0.0,2.3,111
2009-10-08 22:20:05,21.0,-19.2,40.2,0.0,2.3,112
2009-10-08 22:25:05,20.9,-19.2,40.0,0.0,2.3,112
2009-10-08 22:30:05,20.9,-19.2,40.1,0.0,2.3,112
2009-10-08 22:35:05,21.0,-19.3,40.2,0.0,2.3,111
2009-10-08 22:40:05,21.0,-19.2,40.2,0.0,2.3,111
2009-10-08 22:45:05,21.0,-19.3,40.3,0.0,2.3,112
2009-10-08 22:50:05,21.1,-19.3,40.4,0.0,2.3,111
2009-10-08 22:55:05,21.1,-19.5,40.6,0.0,2.3,112
2009-10-08 23:00:05,21.0,-19.5,40.5,0.0,2.3,111
2009-10-08 23:05:05,21.0,-19.6,40.5,0.0,2.3,112
2009-10-08 23:10:05,20.9,-19.6,40.5,0.0,2.3,111
2009-10-08 23:15:05,20.9,-19.6,40.5,0.0,2.3,111
2009-10-08 23:20:05,20.9,-19.8,40.7,0.0,2.3,112
2009-10-08 23:25:05,20.9,-19.8,40.7,0.0,2.3,112
2009-10-08 23:30:05,20.9,-19.7,40.5,0.0,2.3,112
2009-10-08 23:35:05,20.8,-19.8,40.6,0.0,2.3,111
2009-10-08 23:40:05,20.8,-19.8,40.6,0.0,2.3,112
2009-10-08 23:45:05,20.8,-19.8,40.6,0.0,2.3,111
2009-10-08 23:50:05,20.8,-19.9,40.7,0.0,2.3,112
2009-10-08 23:55:05,20.8,-19.8,40.5,0.0,2.3,112
